Weather observations for the past three days for
Danville, Danville Regional Airport
Imperial (Metric)
Date Time (edt) Wind (mph) Vis. (mi.) Weather Sky Cond. Temperature (ºF) Relative Humidity Wind Chill (°F) Heat Index (°F) Pressure Precipitation (in)
Air Dwpt 6 hour altimeter (in) sea level (mb) 1 hr 3 hr 6 hr
Max. Min.
25 04:53 NE 5 10.00 Fair CLR 66.9 55.9 68% 30 1014.8
25 03:53 NE 3 10.00 Fair CLR 66.9 55.9 68% 29.99 1014.3
25 02:53 NE 3 10.00 Fair CLR 69.1 55.9 63% 29.98 1014.1
25 01:53 NE 7 10.00 A Few Clouds FEW095 72 55 87.1 72 55% 29.99 1014.2
25 00:53 NE 5 10.00 Mostly Cloudy BKN090 73.9 55.9 54% 29.97 1013.8
24 23:53 N 5 10.00 A Few Clouds FEW085 75.9 55.9 50% 78 29.96 1013.2
24 22:53 N 9 10.00 Partly Cloudy SCT095 79 55 44% 80 29.94 1012.4
24 21:53 N 6 10.00 Fair CLR 80.1 55 42% 80 29.91 1011.5
24 20:53 N 5 10.00 Fair CLR 81 55.9 42% 81 29.88 1010.7
24 19:53 N 7 10.00 Fair CLR 87.1 54 95 87.1 32% 85 29.86 1010.0
24 18:53 N 12 G 22 10.00 A Few Clouds FEW095 91 55.9 31% 89 29.84 1009.3
24 17:53 N 7 10.00 Mostly Cloudy BKN090 90 55 31% 88 29.82 1008.7
24 16:53 N 10 10.00 A Few Clouds FEW080 93 57 30% 92 29.81 1008.2
24 15:53 N 9 G 21 10.00 A Few Clouds FEW080 93.9 57.9 30% 93 29.81 1008.3
24 14:53 NW 12 10.00 Partly Cloudy SCT070 93 59 32% 92 29.83 1008.7
24 13:53 NW 10 G 17 10.00 Partly Cloudy SCT070 91 61 91.9 78.1 37% 91 29.84 1009.2
24 12:53 N 7 10.00 A Few Clouds FEW055 90 64 42% 91 29.85 1009.4
24 11:53 N 10 G 20 10.00 Mostly Cloudy SCT050 BKN065 88 64.9 46% 90 29.85 1009.5
24 10:53 Vrbl 6 G 21 10.00 A Few Clouds FEW047 89.1 66 47% 92 29.83 1009.1
24 09:53 NW 8 10.00 A Few Clouds FEW040 86 68 55% 89 29.83 1008.8
24 08:53 W 6 10.00 Fair CLR 84 68 59% 87 29.82 1008.6
24 07:53 W 5 10.00 Fair CLR 78.1 71.1 78.1 73 79% 80 29.8 1007.8
24 06:53 SW 5 10.00 Mostly Cloudy BKN100 73.9 71.1 91% 29.78 1007.3
24 05:53 S 5 10.00 Fair CLR 73.9 71.1 91% 29.77 1006.7
24 04:53 SW 3 10.00 Overcast BKN095 OVC110 75 72 90% 74 29.76 1006.5
24 03:53 Calm 10.00 Overcast OVC085 75 72 90% 74 29.76 1006.4
24 02:53 SW 3 10.00 Mostly Cloudy BKN070 BKN080 75.9 72 88% 76 29.77 1006.8
24 01:53 Calm 10.00 Overcast SCT090 OVC110 77 72 87.1 77 85% 78 29.79 1007.4
24 00:53 Vrbl 3 10.00 Overcast SCT095 OVC120 77 72 85% 78 29.8 1007.7
23 23:53 SW 5 10.00 Mostly Cloudy BKN110 77 73 88% 78 29.8 1007.7
23 22:53 Calm 10.00 A Few Clouds FEW110 77 71.1 82% 79 29.8 1008.1
23 21:53 SW 17 G 29 10.00 Mostly Cloudy FEW046 SCT070 BKN100 82.9 70 65% 87 29.81 1008.2
23 20:53 Vrbl 3 10.00 A Few Clouds FEW090 84 70 63% 88 29.78 1007.4
23 19:53 Vrbl 3 10.00 A Few Clouds FEW100 87.1 71.1 95 87.1 59% 93 29.78 1007.3
23 18:53 SW 7 10.00 Fair CLR 91 71.1 52% 98 29.78 1007.2
23 17:53 SW 12 G 20 10.00 Fair CLR 89.1 70 53% 94 29.8 1007.9
23 16:53 Vrbl 6 G 16 10.00 Partly Cloudy SCT050 SCT065 91 70 50% 97 29.8 1007.9
23 15:53 SW 12 G 24 10.00 A Few Clouds FEW049 93 70 47% 99 29.82 1008.6
23 14:53 SW 13 G 22 10.00 Mostly Cloudy SCT050 BKN065 91.9 70 49% 98 29.83 1009.0
23 13:53 S 10 G 22 10.00 Partly Cloudy FEW045 SCT055 93 71.1 93.9 78.1 49% 100 29.86 1009.7
23 12:53 W 9 10.00 Partly Cloudy FEW047 FEW090 SCT110 93 71.1 49% 100 29.89 1010.9
23 11:53 SW 12 G 18 10.00 Fair CLR 91 72 54% 99 29.91 1011.7
23 10:53 SW 10 G 20 10.00 A Few Clouds FEW031 87.1 73 63% 95 29.93 1012.2
23 09:53 SW 9 10.00 Mostly Cloudy BKN080 84 73 70% 90 29.94 1012.7
23 08:53 SW 10 G 20 10.00 Fair CLR 81 72 74% 85 29.95 1013.0
23 07:53 SW 9 10.00 Fair CLR 78.1 72 78.1 73 82% 80 29.96 1013.3
23 06:53 S 5 10.00 Fair CLR 73.9 71.1 91% 29.97 1013.6
23 05:53 S 3 10.00 Fair CLR 73 70 90% 29.97 1013.5
23 04:53 S 3 10.00 Fair CLR 73.9 70 88% 29.97 1013.5
23 03:53 SW 3 10.00 Fair CLR 75 70 84% 75 29.97 1013.5
23 02:53 SW 6 10.00 Fair CLR 75.9 70 82% 77 29.98 1013.8
23 01:53 S 7 10.00 Fair CLR 77 69.1 88 73 77% 79 29.98 1014.0
23 00:53 Vrbl 6 10.00 Fair CLR 75.9 66.9 74% 77 29.99 1014.2
22 23:53 S 3 10.00 Fair CLR 75.9 66.9 74% 77 29.99 1014.4
22 22:53 S 3 10.00 Fair CLR 75.9 66.9 74% 77 30 1014.6
22 21:53 S 3 10.00 Fair CLR 79 66.9 67% 81 30 1014.6
22 20:53 Calm 10.00 Fair CLR 82.9 68 61% 86 29.98 1014.1
22 19:53 Vrbl 6 10.00 Fair CLR 88 68 93.9 88 52% 92 29.99 1014.3
22 18:53 SW 8 10.00 Fair CLR 91 66.9 45% 94 29.99 1014.3
22 17:53 SW 9 G 17 10.00 A Few Clouds FEW050 91.9 68 46% 96 29.99 1014.4
22 16:53 S 8 10.00 A Few Clouds FEW055 93 68 44% 97 30.01 1015.1
22 15:53 SW 8 G 20 10.00 Partly Cloudy SCT055 93 69.1 46% 98 30.03 1015.7
22 14:53 SW 10 10.00 Partly Cloudy FEW050 SCT080 93.9 69.1 44% 99 30.05 1016.4
22 13:53 SW 8 G 22 10.00 Partly Cloudy SCT050 91 66.9 93 71.1 45% 94 30.07 1017.1
22 12:53 SW 9 10.00 Fair CLR 91 66 44% 94 30.09 1017.9
22 11:53 SW 9 10.00 Fair CLR 89.1 64.9 45% 91 30.12 1018.6
22 10:53 W 7 10.00 Fair CLR 87.1 64.9 48% 89 30.13 1019.0
22 09:53 SW 7 10.00 Fair CLR 84 68 59% 87 30.14 1019.3
22 08:53 SW 9 10.00 Fair CLR 78.1 68 71% 80 30.15 1019.9
22 07:53 SW 3 10.00 Fair CLR 71.1 66 71.1 63 84% 30.16 1020.0
22 06:53 Calm 10.00 Fair CLR 66 64 93% 30.16 1020.0
22 05:53 SW 3 10.00 Fair CLR 64 62.1 93% 30.15 1019.8
Date Time (edt) Wind (mph) Vis. (mi.) Weather Sky Cond. Air Dwpt Max. Min. Relative Humidity Wind Chill (°F) Heat Index (°F) altimeter (in) sea level (mb) 1 hr 3 hr 6 hr
6 hour
Temperature (ºF) Pressure Precipitation (in)